Location: *
(40.9167°N, 9.5000°E)
Time: 21:02:15
(UTC+00:00)

Hubble Space Telescope - Pass Details

Date: 09 April 2020
Orbit: 536 x 540 km, 28.5° (Epoch: 31 May)

Event Time Altitude Azimuth Distance (km) Brightness Sun altitude
Rises 18:54:00 0° 231° (SW) 2,665 4.8 -11.4°
Reaches altitude 10° 18:57:13 10° 205° (SSW) 1,775 3.5 -12.0°
Maximum altitude 18:59:18 14° 174° (S) 1,558 2.9 -12.3°
Enters shadow 19:00:38 12° 154° (SSE) 1,653 2.8 -12.6°
